Theta_e
323 323 323 324 324 324 324 323 323 323 324 324 324 324 323 323 321 323 322 322 324 340 328 319 321 324 325 321 323 324 314 308 313 314 316 322 320 324 324 320 325 327 329 332 335
322 322 323 323 323 323 323 323 323 323 323 323 323 322 323 323 317 320 323 343 340 340 315 318 319 322 319 320 321 318 313 312 318 320 318 320 322 322 318 319 319 323 331 335 336
321 322 322 323 323 322 322 322 322 322 323 323 322 322 322 321 318 320 338 339 338 327 318 323 322 321 318 320 318 317 312 317 318 321 323 318 320 324 321 318 320 321 329 333 337
319 320 321 321 321 321 321 321 321 322 322 321 321 321 322 320 310 323 340 342 339 320 320 322 320 317 317 315 318 313 317 317 319 324 322 320 323 320 323 324 327 328 332 337 331
319 319 320 319 319 319 320 320 320 320 321 321 321 322 319 319 318 326 344 338 322 319 318 320 319 319 315 316 317 316 319 320 323 322 319 320 318 319 323 329 330 332 336 336 336
318 318 319 319 319 319 319 318 318 319 320 321 322 321 318 311 324 325 326 321 321 319 320 322 321 322 318 317 317 320 319 320 323 322 323 321 323 324 326 331 333 335 336 337 335
317 318 318 318 318 318 318 318 317 318 320 321 323 319 316 315 323 324 320 321 323 322 321 324 324 320 321 317 322 320 315 318 319 321 317 321 319 321 328 331 332 332 333 335 337
318 318 318 318 318 318 318 318 318 319 321 322 323 317 317 323 325 323 320 321 324 325 324 324 324 321 319 322 320 316 316 310 317 320 319 319 313 323 328 329 327 329 333 334 337
317 317 317 317 317 318 318 317 318 320 321 322 319 321 315 323 319 323 324 320 321 323 324 324 322 319 319 315 311 314 308 309 313 322 319 320 316 320 327 328 328 331 333 335 336
317 317 316 316 316 317 316 317 319 317 319 320 319 315 318 315 321 323 326 325 321 322 321 320 318 315 316 313 305 308 308 310 309 318 319 317 317 321 326 326 327 329 328 333 333
317 316 316 316 317 316 314 318 317 315 314 314 315 317 317 322 324 322 326 323 323 321 314 318 313 311 312 315 314 313 312 310 313 315 317 316 316 319 321 323 326 326 328 329 330
316 316 316 316 316 316 316 315 315 316 309 316 316 318 320 321 316 320 326 318 318 313 317 315 310 316 316 314 314 313 311 309 312 316 317 316 312 315 316 316 325 326 327 328 331
315 315 315 315 316 314 313 317 321 320 311 314 316 315 317 320 316 318 322 320 317 314 315 312 314 316 314 314 311 311 311 310 309 316 316 311 308 311 317 321 320 326 327 328 327
314 314 315 315 311 318 315 321 322 321 307 309 310 315 317 319 315 323 323 320 317 314 315 313 317 313 312 313 312 308 314 312 314 310 303 312 301 307 312 310 314 323 323 324 325
313 314 314 308 318 314 320 322 322 321 299 311 311 320 318 315 317 318 325 320 314 315 314 311 312 313 312 313 314 310 315 315 313 311 309 307 304 310 313 311 315 320 322 323 323
313 314 314 315 316 316 321 322 321 305 300 308 312 311 311 315 316 318 318 321 321 316 315 314 319 317 316 315 317 318 315 314 313 310 301 306 306 305 310 309 314 320 321 322 322
313 313 312 320 317 320 322 319 304 301 313 307 308 310 310 309 313 315 313 313 311 307 308 313 313 316 316 312 316 314 310 303 301 303 301 309 306 310 316 317 320 320 321 321 321
312 311 313 316 320 320 320 312 302 307 309 313 311 309 306 309 311 313 312 310 315 313 310 307 304 313 317 312 310 310 311 305 298 296 300 308 304 308 319 321 322 323 322 321 320
310 323 319 324 320 320 315 305 308 310 312 309 310 307 306 309 309 310 311 310 313 315 310 308 308 317 315 315 314 311 307 312 306 309 302 307 308 315 319 319 320 320 321 320 320
319 321 319 322 322 317 311 304 311 315 315 312 305 308 305 307 307 308 309 314 312 316 321 316 308 315 315 316 317 315 317 306 307 299 297 304 305 307 313 316 319 319 320 321 320
320 315 322 322 321 313 305 310 313 317 315 311 309 307 308 307 308 307 309 313 315 314 319 317 314 311 315 313 309 309 310 310 310 308 301 299 303 318 317 319 318 319 320 321 320
321 310 322 320 307 310 307 312 307 314 316 314 314 313 310 309 308 308 308 312 317 316 312 317 316 307 310 317 318 313 309 312 304 303 307 305 303 318 320 321 321 320 320 321 321
314 314 320 317 303 305 310 311 314 313 315 313 312 315 314 311 308 312 316 320 320 316 317 320 313 305 306 311 317 311 312 311 313 316 309 303 306 320 320 320 321 320 320 321 321
316 309 314 314 314 313 311 310 310 315 314 316 313 316 313 311 316 312 314 317 320 318 325 332 319 311 304 308 309 307 310 312 311 306 306 307 309 315 318 319 320 320 320 320 320
317 314 315 305 307 313 316 312 310 310 315 317 315 313 313 311 312 310 314 317 319 319 321 330 312 312 311 311 310 309 309 310 308 309 305 308 311 316 318 320 321 322 320 320 319
317 318 320 312 312 313 311 312 310 312 315 313 314 315 315 313 314 310 315 317 317 319 321 333 316 314 309 312 311 308 310 311 310 310 310 313 313 320 321 323 322 320 319 319 317
323 326 320 312 313 310 311 312 312 316 317 319 317 318 313 314 318 318 325 325 327 322 324 326 318 312 305 313 311 305 311 311 311 312 313 308 313 319 317 319 319 320 319 319 318
Wind_Speed
11 12 11 11 12 12 13 12 14 13 15 16 16 17 17 18 24 6 8 2 1 3 3 11 11 14 19 20 18 9 11 7 9 12 3 6 27 20 26 22 10 13 16 15 15
11 12 11 11 12 13 13 13 14 14 14 16 16 18 16 16 14 15 3 3 5 3 8 11 13 14 14 17 5 6 3 8 12 16 10 29 17 8 8 9 4 9 17 15 14
13 13 12 12 13 13 14 14 14 14 14 16 17 19 17 15 10 4 6 6 5 4 10 17 19 17 18 11 7 5 9 10 12 21 28 15 24 13 21 12 14 16 17 14 20
12 13 13 12 12 13 14 14 14 14 15 15 16 19 23 6 4 5 6 7 6 7 11 17 12 17 18 5 5 12 8 7 15 23 27 25 16 17 5 21 26 21 14 24 18
11 13 13 12 12 12 13 14 14 13 14 15 15 17 13 8 3 6 7 8 9 9 12 17 16 15 13 3 2 7 24 3 21 24 28 20 10 27 10 25 20 18 23 25 13
11 11 12 12 12 12 13 14 14 12 14 14 13 20 7 12 5 11 12 10 12 12 14 17 15 12 12 7 9 14 17 18 20 19 17 15 8 12 15 18 23 18 17 19 17
11 11 11 11 12 12 12 13 14 13 14 14 11 7 9 13 5 3 6 10 12 13 15 11 9 14 16 13 23 16 19 19 14 21 13 17 10 13 17 17 19 16 15 16 16
11 11 11 11 12 13 12 14 14 13 14 14 7 8 8 1 7 6 9 10 9 11 14 13 12 14 14 12 13 10 8 6 9 13 2 1 5 3 16 18 18 10 15 15 17
10 10 11 11 12 13 13 14 15 15 12 11 7 7 6 2 9 10 11 11 10 13 12 9 10 11 13 15 1 8 10 17 5 11 13 11 12 13 19 16 15 15 12 15 16
12 12 11 11 12 13 15 11 5 14 8 8 10 9 10 12 6 7 11 10 10 10 11 12 12 11 3 8 9 13 9 24 7 15 11 13 13 9 13 16 18 20 1 18 15
12 11 10 10 11 11 14 6 7 6 9 11 6 12 10 3 3 8 9 8 11 9 14 16 9 11 25 14 14 13 11 12 17 3 9 13 11 15 19 9 19 14 14 11 11
12 11 11 10 10 9 8 7 7 6 10 18 17 7 2 9 11 14 12 10 11 14 18 15 3 9 8 6 14 12 12 4 11 3 8 4 27 17 24 26 14 14 18 13 12
12 10 10 9 8 6 10 14 7 9 7 15 12 11 10 10 12 15 15 17 13 18 20 6 4 4 7 8 3 6 10 4 10 15 22 23 26 14 13 14 31 8 11 17 15
12 10 7 7 3 7 11 3 6 5 7 14 9 6 15 12 8 15 17 19 13 20 10 1 7 5 3 9 12 3 11 13 23 12 5 8 4 9 9 10 32 8 12 14 14
12 10 7 5 11 8 7 5 10 2 7 18 14 6 8 13 5 16 15 11 18 13 5 6 0 6 11 3 9 13 11 18 22 16 8 11 12 11 18 13 13 11 11 12 10
12 8 4 5 7 12 8 7 3 7 6 13 11 12 16 17 14 13 9 15 17 16 9 12 7 9 6 5 10 13 9 2 6 5 3 19 9 5 7 11 11 11 10 8 11
11 6 5 8 7 3 6 5 6 9 9 12 17 16 16 16 17 15 16 14 11 8 12 5 5 7 3 8 5 9 14 3 2 6 3 7 7 7 14 17 10 13 11 8 13
10 6 11 8 11 6 7 6 8 11 7 11 13 19 15 15 16 9 11 13 15 15 11 3 5 2 3 5 7 13 7 7 12 12 5 18 8 7 13 13 12 13 11 12 11
8 5 6 9 10 6 7 10 7 7 6 3 10 15 13 16 8 11 14 15 13 14 3 5 8 3 4 7 7 8 10 9 8 16 6 8 5 5 4 11 12 11 11 10 7
6 10 10 7 5 5 7 15 12 5 7 9 7 9 11 14 10 11 14 12 9 10 7 15 8 6 5 5 4 7 5 7 6 7 12 8 8 5 10 9 10 9 10 9 2
5 6 7 7 5 6 9 14 8 7 2 4 9 8 9 8 13 12 8 9 3 1 6 5 4 4 6 3 9 7 4 6 6 5 7 7 9 11 10 12 6 11 8 8 9
8 7 7 7 7 8 12 17 5 3 8 6 7 11 6 6 10 11 12 9 9 6 7 3 2 4 18 21 13 4 6 8 6 11 9 8 1 10 11 10 7 9 10 11 4
8 7 5 8 8 10 17 22 5 6 8 8 6 8 4 3 3 11 9 6 7 6 3 3 2 7 5 9 13 5 7 1 3 6 2 8 4 9 11 10 7 10 8 7 5
7 4 6 7 13 12 13 16 5 10 7 4 8 6 0 6 6 5 12 5 4 2 4 3 4 3 8 10 6 3 5 3 2 4 10 9 7 6 9 11 10 10 1 8 9
6 6 5 8 11 14 14 13 11 9 9 9 9 13 8 5 7 5 5 10 5 4 2 2 4 11 6 5 5 8 5 5 8 8 5 9 15 5 4 2 7 9 2 1 10
7 7 8 7 12 13 10 12 16 12 9 10 10 12 14 9 9 8 8 7 8 6 6 1 5 7 11 9 4 8 6 4 4 1 4 12 10 3 7 14 10 3 1 7 10
9 10 6 6 9 11 11 12 11 7 5 8 12 10 15 14 11 12 12 8 6 9 8 7 6 2 10 12 5 8 8 7 5 2 4 5 4 6 1 5 3 5 4 10 8
Wind_Direction
326 324 322 319 315 312 313 317 317 319 318 314 315 315 317 322 307 219 243 86 157 5 308 270 242 258 258 258 263 277 102 195 151 118 83 326 85 57 70 328 352 338 101 113 135
321 318 315 314 310 310 310 313 314 315 317 314 316 313 320 327 304 274 98 151 92 63 235 244 248 244 259 264 199 240 264 102 79 131 126 55 66 72 112 175 309 333 102 119 93
317 314 311 309 307 311 307 310 311 313 315 313 316 314 316 319 275 99 177 188 144 189 263 281 272 282 266 268 40 320 37 34 63 88 81 125 80 253 132 155 196 218 129 132 102
312 308 306 305 305 308 304 305 307 311 312 312 317 318 311 251 345 95 176 161 188 232 254 274 257 259 262 271 46 285 79 342 61 90 83 51 357 253 146 166 187 213 117 66 77
308 303 303 303 305 302 300 300 303 307 307 310 319 321 326 248 263 139 168 168 195 211 246 259 252 266 300 58 290 341 15 348 89 85 100 134 211 228 55 117 168 90 90 104 97
300 301 302 304 304 298 298 296 296 302 300 306 320 317 270 271 35 136 204 179 218 206 239 262 285 347 295 351 21 53 82 343 84 96 83 71 23 53 79 93 84 79 77 83 73
305 305 305 305 302 294 292 290 292 296 294 302 318 305 271 262 332 141 201 209 220 215 253 248 318 309 307 340 35 36 42 353 12 111 155 240 61 72 72 88 84 78 83 85 84
307 309 310 309 300 294 293 290 288 289 293 293 308 284 268 132 318 201 198 207 222 236 270 308 328 300 293 7 45 56 72 163 266 119 144 59 126 306 113 107 99 105 83 81 67
310 311 312 308 303 296 294 284 283 286 271 279 269 229 281 139 215 212 208 208 210 242 257 277 293 281 278 69 340 223 123 268 214 124 148 130 119 258 119 117 127 110 120 104 87
320 319 313 308 305 301 292 265 280 300 218 242 260 273 254 223 138 179 208 234 204 233 248 240 241 241 72 247 245 217 145 210 102 172 94 110 117 114 129 141 117 90 61 73 71
313 310 303 301 300 306 311 242 213 190 227 241 240 249 160 90 142 219 188 228 220 227 238 214 235 266 191 222 256 51 64 41 342 69 132 115 98 65 45 235 105 112 109 109 98
312 310 310 308 307 312 284 267 32 322 297 227 258 282 286 240 181 199 174 204 219 234 227 251 272 316 24 325 21 12 90 132 244 315 102 117 43 24 1 336 74 115 127 117 111
311 311 313 306 316 269 246 290 332 320 267 218 206 237 195 201 206 180 190 217 205 237 252 243 249 29 296 44 60 354 323 339 299 99 61 52 10 66 279 332 336 35 58 84 78
315 312 309 310 291 261 236 266 283 354 274 153 189 241 187 210 227 184 200 219 227 243 257 47 229 285 311 352 13 349 18 342 29 62 52 16 234 218 91 93 262 94 75 94 108
319 308 295 234 319 261 23 313 3 234 266 144 168 217 201 204 176 186 205 261 268 259 323 357 126 44 56 244 343 358 4 65 88 93 125 236 241 135 176 192 278 112 113 108 111
321 304 289 202 236 261 305 323 242 235 219 161 142 179 190 210 208 181 227 246 284 300 168 258 56 96 162 320 29 341 76 284 53 173 159 247 207 321 197 176 231 123 99 90 99
326 307 230 313 299 354 313 255 224 251 131 151 160 176 207 197 233 169 203 226 251 244 221 171 203 81 296 324 31 318 306 306 217 221 290 284 172 157 197 192 179 116 109 76 63
319 304 220 252 296 295 288 242 254 244 181 138 167 170 197 200 221 180 204 226 227 248 301 144 19 346 99 16 349 298 336 356 336 320 69 41 36 352 78 88 93 88 94 69 55
316 210 242 232 224 273 261 225 228 321 58 212 199 183 191 187 225 190 221 227 204 241 202 16 214 153 25 334 358 342 335 339 292 297 105 129 324 121 296 133 120 107 97 71 47
303 282 248 155 168 224 245 254 289 61 13 315 227 205 189 175 210 205 214 229 223 238 16 155 199 217 126 279 164 282 337 339 336 327 343 175 135 189 206 150 115 141 119 95 18
255 236 116 145 176 226 232 236 234 110 147 265 255 226 201 172 211 205 210 201 16 90 258 323 2 125 253 9 348 322 336 9 323 329 324 348 74 106 156 140 132 100 95 110 72
276 262 135 164 203 224 235 240 300 72 159 247 299 286 232 206 214 247 238 191 146 287 236 22 2 330 43 357 347 358 14 30 358 350 3 347 310 9 107 112 105 97 86 65 69
264 230 157 201 215 212 239 264 161 238 230 193 234 281 183 283 220 270 96 34 101 218 26 30 231 264 16 1 283 291 71 227 59 285 349 298 43 242 94 100 110 107 87 133 98
272 208 140 214 254 306 258 243 204 217 291 299 219 265 306 263 228 294 117 104 144 131 343 310 301 294 169 245 357 247 174 201 181 276 344 35 145 136 148 164 136 113 125 109 81
247 253 152 191 217 243 256 229 226 208 200 212 226 221 214 241 227 247 112 125 159 90 202 274 263 268 283 6 310 312 316 35 3 351 343 5 66 77 152 187 109 103 159 110 84
296 350 337 250 214 228 236 242 221 225 181 192 242 201 227 222 247 241 170 164 174 175 209 205 268 292 317 271 250 293 290 158 264 16 320 47 27 358 54 99 99 161 174 80 71
13 318 269 267 203 226 231 243 236 245 144 299 206 264 201 219 233 263 291 164 180 166 213 181 253 294 274 347 302 285 356 128 102 222 62 4 62 51 35 130 138 190 176 89 78